Simultaneous Nadir Overpasses (SNOs) Predictions

Prediction of SNOs between GOES-16 and METOP-C Satellite Orbit:

Table of predicted SNOs for the next 14.0 days since TLE Epoch: 9/9/2023
Index Date Time (GOES-16) GOES-16 Lat,Lon METOP-C Lat,Lon Distance(km) Time Diff (sec)
1 09/09/2023 02:17:58 0.04, -75.20 0.77, -71.94 371.60 80
2 09/10/2023 14:34:09 -0.04, -75.23 0.22, -76.51 145.17 80
3 09/11/2023 14:16:07 -0.04, -75.24 -0.85, -71.50 425.07 80
4 09/13/2023 02:32:27 0.04, -75.23 -0.13, -76.10 98.95 80
5 09/14/2023 02:14:25 0.04, -75.24 0.94, -71.10 471.82 80
6 09/15/2023 14:33:15 -0.04, -75.28 0.02, -75.66 43.24 80
7 09/18/2023 02:31:33 0.04, -75.30 0.07, -75.26 5.75 80
8 09/20/2023 14:29:41 -0.04, -75.36 -0.15, -74.81 62.21 80
9 09/22/2023 02:48:39 0.04, -75.36 -0.89, -79.40 460.59 80
